Regional Weather Roundup
Issued by NWS

Home | Current Version | Previous Version | Text Only | Print | Product List | Glossary Off
Versions: 1 2 3 4 5 6 7 8 9 10 11 12 13 14 15 16 17 18 19 20 21 22 23 24 25 26 27 28 29 30 31 32 33 34 35 36 37 38 39 40 41 42 43 44 45 46 47 48 49 50

000
ASUS43 KMPX 250501
RWRMN
WEATHER ROUNDUP FOR MINNESOTA
NATIONAL WEATHER SERVICE TWIN CITIES/CHANHASSEN MN
1100 PM CST SAT FEB 24 2018


NOTE: "FAIR" INDICATES FEW OR NO CLOUDS BELOW 12,000 FEET WITH NO
SIGNIFICANT WEATHER AND/OR OBSTRUCTIONS TO VISIBILITY. N/A MEANS
CURRENT SKY AND/OR WEATHER CONDITIONS ARE NOT AVAILABLE.

MNZ060>063-068>070-250600-
   Twin Cities Metro

CITY           SKY/WX    TMP DP  RH WIND       PRES   REMARKS
TWIN CITIES    LGT SNOW  28  28 100 SW9       29.47F FOG     WCI  19
ST PAUL        LGT SNOW  29  28  96 SW10      29.47S FOG     WCI  20
CRYSTAL        LGT SNOW  28  25  88 SW9       29.45F FOG     WCI  19
BLAINE         LGT SNOW  30  30 100 W5        29.45F WCI  25
LAKEVILLE      MIX PCPN  25  25 100 W16       29.48R WCI  12
EDEN PRAIRIE   CLOUDY    27  24  89 W16G23    29.47F FOG     WCI  15
SOUTH ST PAUL  LGT SNOW  30  30  99 W8        29.46F WCI  22
LAKE ELMO      LGT SNOW  30  28  93 CALM      29.45F
$$
MNZ001>005-007-008-013>017-022>024-027-028-250600-
   Northwest Minnesota

CITY           SKY/WX    TMP DP  RH WIND       PRES   REMARKS
BEMIDJI        LGT SNOW  19  17  93 CALM      29.49F VSB 3/4
HALLOCK        LGT SNOW  19  18  93 E5        29.58F WCI  13
ROSEAU         LGT SNOW  19  16  86 N3        29.58F
WARROAD        LGT SNOW  21  16  79 N3        29.59F
THIEF RVR FALL LGT SNOW  18  16  92 N7        29.56F FOG     WCI   9
CROOKSTON      MIX PCPN  19  18  93 CALM      29.58F
FOSSTON        LGT SNOW  16  14  93 N8        29.53F WCI   5
DETROIT LAKES  LGT SNOW  21  19  93 CALM      29.52F
MOORHEAD       MIX PCPN  14  12  92 N9        29.57F WCI   2
PARK RAPIDS    LGT SNOW  20  16  84 N5        29.47F VSB 1   WCI  13
MAHNOMEN       CLOUDY    17  15  93 N7        29.53F WCI   8
$$
MNZ006-009>011-018-025>026-250600-
   North Central Minnesota

CITY           SKY/WX    TMP DP  RH WIND       PRES   REMARKS
BAUDETTE       LGT SNOW  21  19  92 N6        29.55F VSB 3/4 WCI  13
FLAG ISLAND    MIX PCPN  19  12  73 CALM      29.59F
INTL FALLS     SNOW      23  21  92 NE7       29.53F VSB 1/2 WCI  15
WASKISH        LGT SNOW  21  19  93 NE6       29.54F WCI  14
LONGVILLE      LGT SNOW  21  19  93 CALM      29.46F
GRAND RAPIDS   LGT SNOW  23  21  92 N5        29.47F FOG     WCI  17
CRANE LAKE     HVY SNOW  21  19  93 N3        29.56F VSB 1/4
ORR            LGT SNOW  21  19  93 CALM      29.48F
COOK           SNOW      23  21  93 NE3       29.49F VSB 1/4
WALKER         LGT SNOW  19  18  94 CALM      29.47F
$$
MNZ012-019>021-037-250600-
   Northeast Minnesota

CITY           SKY/WX    TMP DP  RH WIND       PRES   REMARKS
DULUTH         LGT SNOW  27  25  92 E20       29.44F VSB 3/4 WCI  13
ELY            LGT SNOW  25  23  93 E7        29.48F VSB 1   WCI  17
HIBBING        LGT SNOW  23  22  96 NE6       29.46F VSB 3/4 WCI  16
DULUTH HARBOR  LGT SNOW  28  27  93 NE22      29.49F WCI  15
TWO HARBORS    LGT SNOW  30  27  86 E17G24    29.46F VSB 1   WCI  18
GRAND MARAIS     N/A     29  26  89 NE22G35   29.54F WCI  15
G MARAIS ARPRT LGT SNOW  23  19  86 E15G28    29.49F VSB 3/4 WCI  10
$$
MNZ029>031-032-039>041-046>048-054>057-064-250600-
   West Central Minnesota

CITY           SKY/WX    TMP DP  RH WIND       PRES   REMARKS
FERGUS FALLS   FLURRIES  18  18 100 NW7       29.54F WCI   8
WHEATON        CLEAR     12  10  92 W9        29.59F WCI   0
MORRIS         FLURRIES  14  12  92 W12       29.53F WCI   0
ALEXANDRIA     LGT SNOW  20  18  92 NW7       29.50F FOG     WCI  11
ELBOW LAKE     FLURRIES  18  17  97 NW6       29.54S WCI   9
WADENA         LGT SNOW  18  18 100 NW3       29.48F
GLENWOOD       LGT SNOW  21  19  93 W8        29.50F WCI  12
APPLETON       PTCLDY    10   7  85 W12       29.57S WCI  -4
BENSON         FLURRIES  16  12  86 NW13      29.56F WCI   2
ORTONVILLE     CLEAR     12   9  85 W10       29.57F WCI  -1
MADISON        CLEAR     12   9  85 W12       29.58F WCI  -2
WILLMAR        CLOUDY    16  12  86 W15       29.55F WCI   1
$$
MNZ033>034-036-042>043-049>051-058-059-250600-
   Central Minnesota

CITY           SKY/WX    TMP DP  RH WIND       PRES   REMARKS
ST CLOUD       LGT SNOW  25  24  96 W12       29.46F FOG     WCI  14
SAUK CENTRE    FLURRIES  20  19  93 W8        29.49F WCI  11
PAYNESVILLE    LGT SNOW  21  19  93 W20       29.50F WCI   5
AITKIN         LGT SNOW  21  19  93 N5        29.45F WCI  15
PINE RIVER     LGT SNOW  19  18  93 NW3       29.50F
BRAINERD       LGT SNOW  23  20  88 N5        29.46F FOG     WCI  17
STAPLES        LGT SNOW  19  18  93 CALM      29.47F
LONG PRAIRIE   LGT SNOW  21  19  93 W6        29.49F WCI  14
LITTLE FALLS   LGT SNOW  25  21  86 NW5       29.47F WCI  19
LITCHFIELD     LGT SNOW  19  19 100 W13G21    29.51S WCI   7
BUFFALO        LGT SNOW  26  25  94 SW8       29.48F WCI  18
MAPLE LAKE     LGT SNOW  27  26  97 W12       29.48F WCI  17
HUTCHINSON     MOCLDY    19  17  89 W18       29.53R WCI   4
$$
MNZ037-044-045-052-053-250600-
   East Central Minnesota

CITY           SKY/WX    TMP DP  RH WIND       PRES   REMARKS
PRINCETON      LGT SNOW  28  27  93 CALM      29.45F
CAMBRIDGE      LGT SNOW  30  27  86 CALM      29.44F
RUSH CITY      LGT SNOW  29  28  96 CALM      29.44F
MOOSE LAKE     LGT SNOW  25  21  86 NE5       29.42F WCI  19
HINCKLEY       LGT SNOW  28  27  93 NE3       29.43F
CLOQUET        LGT SNOW  25  23  93 E12       29.43F WCI  14
MCGREGOR       CLOUDY    25  23  93 NE3       29.45F VSB 1
$$
MNZ071>073-080-081-089-090-097-098-250600-
   Southwest Minnesota

CITY           SKY/WX    TMP DP  RH WIND       PRES   REMARKS
MONTEVIDEO     CLOUDY    12  10  92 NW8       29.57S WCI   1
GRANITE FALLS  CLOUDY    19  16  91 W14       29.58F WCI   5
CANBY          CLEAR     18  14  84 NW18G25   29.59F WCI   2
MARSHALL       CLOUDY    17  13  84 W21       29.57F WCI   0
REDWOOD FALLS  CLOUDY    19  16  88 W16       29.55F WCI   4
OLIVIA         LGT SNOW  18  14  86 W20       29.54S WCI   1
PIPESTONE      CLOUDY    14  10  85 W17G25    29.61R WCI  -3
WORTHINGTON    LGT SNOW  15  12  88 W28G36    29.61R FOG     WCI  -5
JACKSON        CLOUDY    18  16  93 W29G35    29.59S FOG     WCI  -2
TRACY          PTCLDY    17  14  87 W13G18    29.56F WCI   4
SLAYTON        CLOUDY    16  13  89 W18       29.59S WCI  -1
$$
MNZ065>067-074>077-082>085-091>093-250600-
   South Central Minnesota

CITY           SKY/WX    TMP DP  RH WIND       PRES   REMARKS
MANKATO        CLOUDY    21  18  88 W20       29.54S FOG     WCI   6
NEW ULM        CLOUDY    19  16  86 W20       29.55F WCI   4
ST JAMES       CLOUDY    19  18  93 W22G28    29.58S FOG     WCI   3
FAIRMONT       FLURRIES  21  17  84 W23G29    29.59S WCI   5
GLENCOE        CLOUDY    21  21 100 W14       29.51S FOG     WCI   8
FARIBAULT      MIX PCPN  25  21  86 SW21G32   29.52R WCI  10
OWATONNA       MIX PCPN  21  19  93 W24G33    29.53R WCI   4
WASECA         FAIR      23  19  86 W20       29.56R FOG     WCI   8
ALBERT LEA     CLOUDY    21  18  86 W12G18    29.55R WCI   9
$$
MNZ078>079-086>088-094>096-250600-
   Southeast Minnesota

CITY           SKY/WX    TMP DP  RH WIND       PRES   REMARKS
ROCHESTER      CLOUDY    24  22  91 W28G35    29.49R FOG     WCI   7
RED WING       LGT SNOW  32  30  93 CALM      29.45F
STANTON        MIX PCPN  28  26  89 W17G24    29.47R WCI  16
DODGE CENTER   LGT SNOW  21  19  93 W24G30    29.49R WCI   4
WINONA         MIX PCPN  34  34 100 SW3       29.46F
AUSTIN         CLOUDY    23  19  86 W13G21    29.54R FOG     WCI  11
PRESTON        CLOUDY    26  23  89 W18       29.50S FOG     WCI  12
$$
ABBREVIATIONS USED IN REMARKS
   TC - TEMPERATURES IN CELSIUS
  WCI - WIND CHILL INDEX
   HX - HEAT INDEX
  VSB - VISIBILITY
$$




USA.gov is the U.S. government's official web portal to all federal, state and local government web resources and services.